| time (UTC) | temp C | wind direction | speed KPH | gust KPH | rain 1hr cm | rain 24hr cm | rain mn cm | humidity % | barometer mb |
| 20260903034704 | 27 | 119 | 1.6 | 8.0 | 0.00 | 0.00 | 0.00 | 75 | 1013.3 |
| 20260903034503 | 27 | 135 | 1.6 | 6.4 | 0.00 | 0.00 | 0.00 | 75 | 1013.0 |
| 20260903033804 | 27 | 130 | 1.6 | 8.0 | 0.00 | 0.00 | 0.00 | 75 | 1013.4 |
| 20260903033008 | 27 | 148 | 0.0 | 6.4 | 0.00 | 0.00 | 0.00 | 75 | 1013.1 |
| 20260903032904 | 27 | 138 | 3.2 | 4.8 | 0.00 | 0.00 | 0.00 | 75 | 1013.4 |
| 20260903032003 | 28 | 145 | 3.2 | 8.0 | 0.00 | 0.00 | 0.00 | 74 | 1013.4 |
| 20260903031502 | 27 | 153 | 3.2 | 9.7 | 0.00 | 0.00 | 0.00 | 74 | 1013.1 |
| 20260903031103 | 28 | 149 | 3.2 | 9.7 | 0.00 | 0.00 | 0.00 | 73 | 1013.5 |
| 20260903030203 | 28 | 142 | 3.2 | 6.4 | 0.00 | 0.00 | 0.00 | 73 | 1013.5 |
| 20260903030008 | 28 | 159 | 1.6 | 8.0 | 0.00 | 0.00 | 0.00 | 73 | 1013.2 |
| 20260903025306 | 28 | 149 | 3.2 | 8.0 | 0.00 | 0.00 | 0.00 | 73 | 1013.6 |
| 20260903024502 | 28 | 134 | 3.2 | 9.7 | 0.00 | 0.00 | 0.00 | 72 | 1013.2 |
| 20260903023504 | 28 | 149 | 3.2 | 8.0 | 0.00 | 0.00 | 0.00 | 72 | 1013.4 |
| 20260903023007 | 28 | 142 | 4.8 | 8.0 | 0.00 | 0.00 | 0.00 | 71 | 1013.1 |
| 20260903021704 | 28 | 144 | 1.6 | 4.8 | 0.00 | 0.00 | 0.00 | 70 | 1013.2 |
| 20260903021603 | 28 | 159 | 0.0 | 4.8 | 0.00 | 0.00 | 0.00 | 70 | 1012.9 |
| 20260903020803 | 29 | 151 | 1.6 | 4.8 | 0.00 | 0.00 | 0.00 | 70 | 1013.1 |
| 20260903020006 | 29 | 166 | 0.0 | 4.8 | 0.00 | 0.00 | 0.00 | 69 | 1012.7 |
| 20260903015904 | 29 | 146 | 3.2 | 4.8 | 0.00 | 0.00 | 0.00 | 69 | 1013.0 |
| 20260903015004 | 29 | 134 | 1.6 | 4.8 | 0.00 | 0.00 | 0.00 | 69 | 1012.9 |
| 20260903014605 | 29 | 135 | 1.6 | 8.0 | 0.00 | 0.00 | 0.00 | 69 | 1012.6 |
| 20260903013203 | 30 | 138 | 1.6 | 6.4 | 0.00 | 0.00 | 0.00 | 68 | 1012.7 |
| 20260903013004 | 30 | 156 | 1.6 | 4.8 | 0.00 | 0.00 | 0.00 | 68 | 1012.4 |
| 20260903012306 | 30 | 137 | 1.6 | 6.4 | 0.00 | 0.00 | 0.00 | 68 | 1012.7 |
| 20260903011502 | 30 | 128 | 1.6 | 6.4 | 0.00 | 0.00 | 0.00 | 68 | 1012.4 |
| 20260903011404 | 30 | 146 | 3.2 | 6.4 | 0.00 | 0.00 | 0.00 | 67 | 1012.8 |
| 20260903010503 | 30 | 148 | 3.2 | 8.0 | 0.00 | 0.00 | 0.00 | 67 | 1012.7 |
| 20260903005603 | 30 | 149 | 4.8 | 8.0 | 0.00 | 0.00 | 0.00 | 66 | 1012.7 |
| 20260903004703 | 31 | 153 | 6.4 | 12.9 | 0.00 | 0.00 | 0.00 | 66 | 1012.6 |
| 20260903004507 | 30 | 160 | 3.2 | 12.9 | 0.00 | 0.00 | 0.00 | 66 | 1012.3 |
| 20260903003106 | 31 | 150 | 4.8 | 11.3 | 0.00 | 0.00 | 0.00 | 64 | 1012.2 |
| 20260903002904 | 31 | 139 | 6.4 | 11.3 | 0.00 | 0.00 | 0.00 | 64 | 1012.5 |
| 20260903002004 | 31 | 153 | 9.7 | 17.7 | 0.00 | 0.00 | 0.00 | 64 | 1012.5 |
| 20260903001504 | 31 | 152 | 11.3 | 17.7 | 0.00 | 0.00 | 0.00 | 63 | 1012.1 |
| 20260903001104 | 31 | 169 | 11.3 | 20.9 | 0.00 | 0.00 | 0.00 | 63 | 1012.4 |
| 20260903000204 | 31 | 172 | 12.9 | 19.3 | 0.00 | 0.00 | 0.00 | 62 | 1012.3 |
| 20260903000008 | 31 | 186 | 12.9 | 19.3 | 0.00 | 0.00 | 0.00 | 62 | 1011.9 |
| 20260902235305 | 32 | 157 | 11.3 | 19.3 | 0.00 | 0.00 | 0.00 | 62 | 1012.2 |
| 20260902234609 | 32 | 164 | 14.5 | 20.9 | 0.00 | 0.00 | 0.00 | 62 | 1012.0 |
| 20260902234403 | 32 | 164 | 11.3 | 20.9 | 0.00 | 0.00 | 0.00 | 62 | 1012.2 |
| 20260902233503 | 32 | 151 | 9.7 | 19.3 | 0.00 | 0.00 | 0.00 | 61 | 1012.2 |
| 20260902233008 | 32 | 171 | 9.7 | 19.3 | 0.00 | 0.00 | 0.00 | 61 | 1011.7 |
| 20260902232604 | 32 | 153 | 9.7 | 17.7 | 0.00 | 0.00 | 0.00 | 60 | 1012.0 |
| 20260902231704 | 33 | 181 | 12.9 | 22.5 | 0.00 | 0.00 | 0.00 | 60 | 1012.2 |
| 20260902231604 | 32 | 156 | 12.9 | 22.5 | 0.00 | 0.00 | 0.00 | 60 | 1011.8 |
| 20260902230803 | 33 | 174 | 11.3 | 17.7 | 0.00 | 0.00 | 0.00 | 58 | 1012.1 |
| 20260902230105 | 33 | 184 | 9.7 | 22.5 | 0.00 | 0.00 | 0.00 | 57 | 1011.8 |
| 20260902225904 | 34 | 162 | 12.9 | 22.5 | 0.00 | 0.00 | 0.00 | 58 | 1012.1 |
| 20260902224505 | 34 | 161 | 8.0 | 24.1 | 0.00 | 0.00 | 0.00 | 55 | 1011.7 |
| 20260902224103 | 35 | 163 | 14.5 | 24.1 | 0.00 | 0.00 | 0.00 | 55 | 1012.0 |
| 20260902223203 | 35 | 170 | 12.9 | 22.5 | 0.00 | 0.00 | 0.00 | 54 | 1011.9 |
| 20260902223004 | 35 | 149 | 11.3 | 22.5 | 0.00 | 0.00 | 0.00 | 54 | 1011.6 |
| 20260902221509 | 35 | 152 | 11.3 | 17.7 | 0.00 | 0.00 | 0.00 | 52 | 1011.4 |
| 20260902221403 | 35 | 152 | 11.3 | 17.7 | 0.00 | 0.00 | 0.00 | 52 | 1011.7 |
| 20260902220503 | 36 | 142 | 11.3 | 19.3 | 0.00 | 0.00 | 0.00 | 51 | 1011.9 |
| 20260902220106 | 36 | 121 | 8.0 | 19.3 | 0.00 | 0.00 | 0.00 | 51 | 1011.6 |
| 20260902215603 | 36 | 156 | 11.3 | 19.3 | 0.00 | 0.00 | 0.00 | 50 | 1012.0 |
| 20260902214703 | 36 | 165 | 9.7 | 22.5 | 0.00 | 0.00 | 0.00 | 49 | 1012.0 |
| 20260902214606 | 36 | 155 | 9.7 | 22.5 | 0.00 | 0.00 | 0.00 | 49 | 1011.6 |
| 20260902213004 | 36 | 111 | 4.8 | 16.1 | 0.00 | 0.00 | 0.00 | 48 | 1011.8 |
| 20260902212903 | 36 | 144 | 9.7 | 16.1 | 0.00 | 0.00 | 0.00 | 47 | 1012.1 |
| 20260902212003 | 36 | 141 | 8.0 | 19.3 | 0.00 | 0.00 | 0.00 | 47 | 1012.2 |
| 20260902211503 | 36 | 132 | 11.3 | 19.3 | 0.00 | 0.00 | 0.00 | 47 | 1012.0 |
| 20260902211103 | 36 | 136 | 8.0 | 17.7 | 0.00 | 0.00 | 0.00 | 47 | 1012.4 |
| 20260902210203 | 36 | 148 | 11.3 | 17.7 | 0.00 | 0.00 | 0.00 | 47 | 1012.6 |
| 20260902210106 | 36 | 172 | 9.7 | 19.3 | 0.00 | 0.00 | 0.00 | 47 | 1012.3 |
| 20260902205306 | 36 | 126 | 9.7 | 19.3 | 0.00 | 0.00 | 0.00 | 48 | 1012.8 |
| 20260902204509 | 36 | 86 | 11.3 | 17.7 | 0.00 | 0.00 | 0.00 | 47 | 1012.6 |
| 20260902204403 | 36 | 139 | 9.7 | 19.3 | 0.00 | 0.00 | 0.00 | 48 | 1012.9 |
| 20260902203503 | 36 | 152 | 9.7 | 20.9 | 0.00 | 0.00 | 0.00 | 46 | 1013.1 |
| 20260902203105 | 36 | 127 | 9.7 | 25.7 | 0.00 | 0.00 | 0.00 | 46 | 1012.7 |
| 20260902202603 | 36 | 148 | 9.7 | 24.1 | 0.00 | 0.00 | 0.00 | 47 | 1013.1 |
| 20260902201703 | 36 | 161 | 12.9 | 22.5 | 0.00 | 0.00 | 0.00 | 47 | 1013.2 |
| 20260902201611 | 36 | 183 | 11.3 | 22.5 | 0.00 | 0.00 | 0.00 | 47 | 1012.8 |
| 20260902200803 | 36 | 160 | 12.9 | 22.5 | 0.00 | 0.00 | 0.00 | 47 | 1013.3 |
| 20260902200009 | 36 | 137 | 12.9 | 22.5 | 0.00 | 0.00 | 0.00 | 46 | 1013.0 |
| 20260902195003 | 36 | 153 | 11.3 | 19.3 | 0.00 | 0.00 | 0.00 | 47 | 1013.3 |
| 20260902194605 | 36 | 163 | 9.7 | 19.3 | 0.00 | 0.00 | 0.00 | 46 | 1013.1 |
| 20260902194103 | 36 | 142 | 9.7 | 19.3 | 0.00 | 0.00 | 0.00 | 49 | 1013.5 |
| 20260902193203 | 36 | 165 | 9.7 | 17.7 | 0.00 | 0.00 | 0.00 | 51 | 1013.8 |
| 20260902193004 | 36 | 161 | 9.7 | 22.5 | 0.00 | 0.00 | 0.00 | 51 | 1013.4 |
| 20260902191505 | 36 | 181 | 8.0 | 19.3 | 0.00 | 0.00 | 0.00 | 48 | 1013.5 |
| 20260902191403 | 36 | 148 | 8.0 | 16.1 | 0.00 | 0.00 | 0.00 | 48 | 1013.9 |
| 20260902190503 | 36 | 158 | 8.0 | 19.3 | 0.00 | 0.00 | 0.00 | 51 | 1013.9 |
| 20260902190104 | 36 | 128 | 8.0 | 19.3 | 0.00 | 0.00 | 0.00 | 51 | 1013.5 |
| 20260902185603 | 36 | 151 | 8.0 | 16.1 | 0.00 | 0.00 | 0.00 | 52 | 1013.9 |
| 20260902184504 | 35 | 119 | 4.8 | 22.5 | 0.00 | 0.00 | 0.00 | 52 | 1013.7 |
| 20260902183803 | 35 | 141 | 6.4 | 16.1 | 0.00 | 0.00 | 0.00 | 53 | 1014.2 |
| 20260902183106 | 35 | 103 | 6.4 | 19.3 | 0.00 | 0.00 | 0.00 | 52 | 1014.1 |
| 20260902182903 | 35 | 140 | 8.0 | 24.1 | 0.00 | 0.00 | 0.00 | 52 | 1014.5 |
| 20260902182004 | 35 | 149 | 9.7 | 24.1 | 0.00 | 0.00 | 0.00 | 53 | 1014.7 |
| 20260902181506 | 35 | 145 | 8.0 | 20.9 | 0.00 | 0.00 | 0.00 | 54 | 1014.4 |
| 20260902180203 | 35 | 145 | 8.0 | 20.9 | 0.00 | 0.00 | 0.00 | 53 | 1015.0 |
| 20260902180008 | 35 | 158 | 9.7 | 17.7 | 0.00 | 0.00 | 0.00 | 53 | 1014.7 |
| 20260902174505 | 34 | 201 | 9.7 | 19.3 | 0.00 | 0.00 | 0.00 | 55 | 1015.0 |
| 20260902173503 | 33 | 146 | 11.3 | 24.1 | 0.00 | 0.00 | 0.00 | 56 | 1015.4 |
| 20260902173104 | 33 | 105 | 8.0 | 24.1 | 0.00 | 0.00 | 0.00 | 56 | 1015.1 |
| 20260902172603 | 33 | 138 | 9.7 | 16.1 | 0.00 | 0.00 | 0.00 | 56 | 1015.5 |
| 20260902171703 | 33 | 127 | 11.3 | 20.9 | 0.00 | 0.00 | 0.00 | 56 | 1015.8 |
| 20260902171505 | 33 | 80 | 11.3 | 20.9 | 0.00 | 0.00 | 0.00 | 56 | 1015.4 |
| 20260902170803 | 33 | 153 | 9.7 | 19.3 | 0.00 | 0.00 | 0.00 | 54 | 1015.8 |
| 20260902170004 | 33 | 126 | 9.7 | 19.3 | 0.00 | 0.00 | 0.00 | 58 | 1015.5 |
| 20260902165903 | 33 | 153 | 11.3 | 19.3 | 0.00 | 0.00 | 0.00 | 58 | 1015.9 |
| 20260902165003 | 33 | 158 | 11.3 | 22.5 | 0.00 | 0.00 | 0.00 | 58 | 1016.0 |
| 20260902164608 | 32 | 163 | 9.7 | 22.5 | 0.00 | 0.00 | 0.00 | 59 | 1015.7 |
| 20260902164106 | 32 | 146 | 11.3 | 20.9 | 0.00 | 0.00 | 0.00 | 60 | 1016.1 |
| 20260902163203 | 33 | 157 | 12.9 | 20.9 | 0.00 | 0.00 | 0.00 | 60 | 1016.1 |
| 20260902163104 | 32 | 186 | 12.9 | 20.9 | 0.00 | 0.00 | 0.00 | 59 | 1015.8 |
| 20260902162306 | 33 | 160 | 9.7 | 16.1 | 0.00 | 0.00 | 0.00 | 60 | 1016.1 |
| 20260902161504 | 32 | 121 | 9.7 | 20.9 | 0.00 | 0.00 | 0.00 | 60 | 1015.8 |
| 20260902161403 | 32 | 157 | 9.7 | 20.9 | 0.00 | 0.00 | 0.00 | 61 | 1016.1 |
| 20260902160503 | 32 | 139 | 9.7 | 17.7 | 0.00 | 0.00 | 0.00 | 62 | 1016.2 |
| 20260902160010 | 32 | 174 | 9.7 | 14.5 | 0.00 | 0.00 | 0.00 | 62 | 1015.7 |
| 20260902154703 | 32 | 122 | 8.0 | 16.1 | 0.00 | 0.00 | 0.00 | 63 | 1016.1 |
| 20260902154607 | 31 | 148 | 4.8 | 16.1 | 0.00 | 0.00 | 0.00 | 62 | 1015.8 |
| 20260902153803 | 32 | 136 | 6.4 | 14.5 | 0.00 | 0.00 | 0.00 | 63 | 1016.0 |
| 20260902153105 | 31 | 144 | 6.4 | 14.5 | 0.00 | 0.00 | 0.00 | 66 | 1015.7 |
| 20260902152903 | 31 | 135 | 6.4 | 14.5 | 0.00 | 0.00 | 0.00 | 66 | 1016.0 |
| 20260902152003 | 31 | 107 | 6.4 | 12.9 | 0.00 | 0.00 | 0.00 | 68 | 1016.0 |
| 20260902151506 | 30 | 113 | 4.8 | 12.9 | 0.00 | 0.00 | 0.00 | 70 | 1015.6 |
| 20260902151103 | 30 | 95 | 6.4 | 14.5 | 0.00 | 0.00 | 0.00 | 70 | 1015.9 |
| 20260902150203 | 30 | 136 | 8.0 | 16.1 | 0.00 | 0.00 | 0.00 | 70 | 1015.8 |
| 20260902150106 | 30 | 57 | 4.8 | 16.1 | 0.00 | 0.00 | 0.00 | 70 | 1015.4 |
| 20260902145305 | 30 | 129 | 6.4 | 11.3 | 0.00 | 0.00 | 0.00 | 73 | 1015.8 |
| 20260902144505 | 30 | 64 | 4.8 | 14.5 | 0.00 | 0.00 | 0.00 | 73 | 1015.4 |
| 20260902144403 | 30 | 91 | 4.8 | 12.9 | 0.00 | 0.00 | 0.00 | 73 | 1015.8 |
| 20260902143503 | 30 | 164 | 4.8 | 9.7 | 0.00 | 0.00 | 0.00 | 75 | 1015.7 |
| 20260902143009 | 29 | 155 | 4.8 | 11.3 | 0.00 | 0.00 | 0.00 | 75 | 1015.4 |
| 20260902141703 | 29 | 156 | 6.4 | 14.5 | 0.00 | 0.00 | 0.00 | 78 | 1015.9 |
| 20260902141505 | 28 | 160 | 4.8 | 14.5 | 0.00 | 0.00 | 0.00 | 78 | 1015.5 |
| 20260902140803 | 28 | 134 | 4.8 | 11.3 | 0.00 | 0.00 | 0.00 | 78 | 1015.9 |
| 20260902140009 | 28 | 165 | 4.8 | 11.3 | 0.00 | 0.00 | 0.00 | 78 | 1015.7 |
| 20260902135903 | 28 | 159 | 4.8 | 11.3 | 0.00 | 0.00 | 0.00 | 79 | 1016.1 |
| 20260902135003 | 27 | 124 | 3.2 | 9.7 | 0.00 | 0.00 | 0.00 | 80 | 1015.9 |
| 20260902134603 | 27 | 157 | 3.2 | 9.7 | 0.00 | 0.00 | 0.00 | 81 | 1015.5 |
| 20260902134103 | 27 | 108 | 4.8 | 11.3 | 0.00 | 0.00 | 0.00 | 82 | 1015.9 |
| 20260902133203 | 26 | 147 | 1.6 | 4.8 | 0.00 | 0.00 | 0.00 | 84 | 1015.9 |
| 20260902133109 | 26 | 146 | 0.0 | 4.8 | 0.00 | 0.00 | 0.00 | 84 | 1015.5 |
| 20260902132306 | 26 | 318 | 0.0 | 3.2 | 0.00 | 0.00 | 0.00 | 86 | 1015.9 |
| 20260902131503 | 25 | 319 | 0.0 | 4.8 | 0.00 | 0.00 | 0.00 | 87 | 1015.6 |
| 20260902131403 | 25 | 337 | 0.0 | 4.8 | 0.00 | 0.00 | 0.00 | 87 | 1016.0 |
| 20260902130503 | 24 | 25 | 1.6 | 3.2 | 0.00 | 0.00 | 0.00 | 88 | 1016.0 |
| 20260902130005 | 23 | 10 | 0.0 | 3.2 | 0.00 | 0.00 | 0.00 | 89 | 1015.6 |
| 20260902124703 | 23 | 16 | 0.0 | 1.6 | 0.00 | 0.00 | 0.00 | 90 | 1016.0 |
| 20260902124604 | 23 | 15 | 0.0 | 1.6 | 0.00 | 0.00 | 0.00 | 90 | 1015.6 |
| 20260902123017 | 23 | 36 | 0.0 | 4.8 | 0.00 | 0.00 | 0.00 | 89 | 1015.5 |
| 20260902122903 | 23 | 51 | 1.6 | 4.8 | 0.00 | 0.00 | 0.00 | 89 | 1015.8 |
| 20260902122003 | 23 | 56 | 0.0 | 3.2 | 0.00 | 0.00 | 0.00 | 89 | 1015.7 |
| 20260902121508 | 23 | 55 | 0.0 | 3.2 | 0.00 | 0.00 | 0.00 | 89 | 1015.2 |
| 20260902121103 | 23 | 42 | 0.0 | 3.2 | 0.00 | 0.00 | 0.00 | 89 | 1015.5 |
| 20260902120203 | 23 | 67 | 1.6 | 4.8 | 0.00 | 0.00 | 0.00 | 89 | 1015.5 |
| 20260902120103 | 23 | 32 | 0.0 | 4.8 | 0.00 | 0.00 | 0.00 | 89 | 1015.2 |
| 20260902115307 | 23 | 47 | 1.6 | 4.8 | 0.00 | 0.00 | 0.00 | 89 | 1015.5 |
| 20260902114605 | 23 | 32 | 0.0 | 3.2 | 0.00 | 0.00 | 0.00 | 88 | 1015.1 |
| 20260902113503 | 23 | 39 | 1.6 | 4.8 | 0.00 | 0.00 | 0.00 | 88 | 1015.3 |
| 20260902113005 | 23 | 26 | 1.6 | 4.8 | 0.00 | 0.00 | 0.00 | 88 | 1015.0 |
| 20260902112603 | 23 | 104 | 1.6 | 4.8 | 0.00 | 0.00 | 0.00 | 88 | 1015.3 |
| 20260902111703 | 23 | 0 | 0.0 | 0.0 | 0.00 | 0.00 | 0.00 | 88 | 1015.3 |
| 20260902111514 | 23 | 156 | 0.0 | 0.0 | 0.00 | 0.00 | 0.00 | 88 | 1014.9 |
| 20260902110019 | 23 | 156 | 0.0 | 0.0 | 0.00 | 0.00 | 0.00 | 87 | 1015.0 |
| 20260902105903 | 23 | 156 | 0.0 | 1.6 | 0.00 | 0.00 | 0.00 | 87 | 1015.3 |
| 20260902105003 | 23 | 155 | 1.6 | 3.2 | 0.00 | 0.00 | 0.00 | 87 | 1015.3 |
| 20260902104612 | 23 | 156 | 0.0 | 3.2 | 0.00 | 0.00 | 0.00 | 86 | 1014.9 |
| 20260902104103 | 24 | 156 | 0.0 | 1.6 | 0.00 | 0.00 | 0.00 | 85 | 1015.2 |
| 20260902103203 | 24 | 155 | 1.6 | 3.2 | 0.00 | 0.00 | 0.00 | 86 | 1015.1 |
| 20260902103007 | 23 | 156 | 0.0 | 3.2 | 0.00 | 0.00 | 0.00 | 86 | 1014.8 |
| 20260902102307 | 24 | 155 | 1.6 | 3.2 | 0.00 | 0.00 | 0.00 | 85 | 1015.2 |
| 20260902101605 | 24 | 156 | 1.6 | 3.2 | 0.00 | 0.00 | 0.00 | 85 | 1014.7 |
| 20260902101403 | 24 | 155 | 1.6 | 3.2 | 0.00 | 0.00 | 0.00 | 85 | 1015.1 |
| 20260902100104 | 24 | 156 | 0.0 | 0.0 | 0.00 | 0.00 | 0.00 | 85 | 1014.7 |
| 20260902094504 | 24 | 156 | 0.0 | 0.0 | 0.00 | 0.00 | 0.00 | 84 | 1014.5 |
| 20260902093803 | 24 | 156 | 0.0 | 1.6 | 0.00 | 0.00 | 0.00 | 84 | 1014.8 |
| 20260902093003 | 24 | 156 | 0.0 | 3.2 | 0.00 | 0.00 | 0.00 | 84 | 1014.5 |
| 20260902092903 | 24 | 156 | 0.0 | 3.2 | 0.00 | 0.00 | 0.00 | 84 | 1014.8 |
| 20260902092003 | 24 | 155 | 0.0 | 3.2 | 0.00 | 0.00 | 0.00 | 83 | 1014.8 |
| 20260902091504 | 24 | 156 | 0.0 | 3.2 | 0.00 | 0.00 | 0.00 | 83 | 1014.5 |
| 20260902091103 | 24 | 155 | 1.6 | 3.2 | 0.00 | 0.00 | 0.00 | 83 | 1014.6 |
| 20260902090203 | 25 | 0 | 0.0 | 0.0 | 0.00 | 0.00 | 0.00 | 82 | 1014.7 |
| 20260902090006 | 24 | 156 | 0.0 | 0.0 | 0.00 | 0.00 | 0.00 | 82 | 1014.4 |
| 20260902085306 | 25 | 0 | 0.0 | 0.0 | 0.00 | 0.00 | 0.00 | 81 | 1014.7 |
| 20260902084505 | 24 | 156 | 0.0 | 0.0 | 0.00 | 0.00 | 0.00 | 81 | 1014.5 |
| 20260902084403 | 25 | 0 | 0.0 | 0.0 | 0.00 | 0.00 | 0.00 | 81 | 1014.8 |
| 20260902083503 | 25 | 0 | 0.0 | 0.0 | 0.00 | 0.00 | 0.00 | 81 | 1014.8 |
| 20260902083111 | 25 | 156 | 0.0 | 0.0 | 0.00 | 0.00 | 0.00 | 81 | 1014.5 |
| 20260902082603 | 25 | 0 | 0.0 | 0.0 | 0.00 | 0.00 | 0.00 | 80 | 1014.8 |
| 20260902081703 | 25 | 0 | 0.0 | 0.0 | 0.00 | 0.00 | 0.00 | 80 | 1014.8 |
| 20260902081508 | 25 | 156 | 0.0 | 0.0 | 0.00 | 0.00 | 0.00 | 79 | 1014.5 |
| 20260902080803 | 25 | 0 | 0.0 | 0.0 | 0.00 | 0.00 | 0.00 | 79 | 1014.8 |
| 20260902080008 | 25 | 156 | 0.0 | 0.0 | 0.00 | 0.00 | 0.00 | 78 | 1014.4 |
| 20260902074604 | 25 | 156 | 0.0 | 0.0 | 0.00 | 0.00 | 0.00 | 78 | 1014.5 |
| 20260902074103 | 26 | 0 | 0.0 | 0.0 | 0.00 | 0.00 | 0.00 | 77 | 1014.8 |
| 20260902073203 | 26 | 155 | 0.0 | 1.6 | 0.00 | 0.00 | 0.00 | 76 | 1014.9 |
| 20260902073105 | 26 | 156 | 0.0 | 1.6 | 0.00 | 0.00 | 0.00 | 76 | 1014.6 |
| 20260902071503 | 26 | 156 | 0.0 | 1.6 | 0.00 | 0.00 | 0.00 | 74 | 1014.7 |
| 20260902071403 | 26 | 156 | 0.0 | 1.6 | 0.00 | 0.00 | 0.00 | 74 | 1015.0 |
| 20260902070503 | 26 | 0 | 0.0 | 0.0 | 0.00 | 0.00 | 0.00 | 73 | 1015.1 |
| 20260902070108 | 26 | 156 | 0.0 | 0.0 | 0.00 | 0.00 | 0.00 | 73 | 1014.7 |
| 20260902065603 | 27 | 0 | 0.0 | 0.0 | 0.00 | 0.00 | 0.00 | 72 | 1015.2 |
| 20260902064703 | 27 | 0 | 0.0 | 0.0 | 0.00 | 0.00 | 0.00 | 71 | 1015.2 |
| 20260902064502 | 27 | 156 | 0.0 | 1.6 | 0.00 | 0.00 | 0.00 | 71 | 1014.9 |
| 20260902063803 | 27 | 156 | 0.0 | 1.6 | 0.00 | 0.00 | 0.00 | 71 | 1015.2 |
| 20260902063109 | 27 | 156 | 0.0 | 3.2 | 0.00 | 0.00 | 0.00 | 70 | 1014.7 |
| 20260902062903 | 27 | 155 | 1.6 | 3.2 | 0.00 | 0.00 | 0.00 | 70 | 1015.1 |
| 20260902062003 | 27 | 155 | 1.6 | 4.8 | 0.00 | 0.00 | 0.00 | 70 | 1015.1 |
| 20260902061614 | 27 | 156 | 0.0 | 4.8 | 0.00 | 0.00 | 0.00 | 70 | 1014.7 |
| 20260902061103 | 27 | 155 | 3.2 | 6.4 | 0.00 | 0.00 | 0.00 | 69 | 1015.1 |
| 20260902060203 | 27 | 154 | 3.2 | 4.8 | 0.00 | 0.00 | 0.00 | 69 | 1015.1 |
| 20260902060005 | 27 | 154 | 1.6 | 6.4 | 0.00 | 0.00 | 0.00 | 68 | 1014.7 |
| 20260902055306 | 28 | 154 | 4.8 | 6.4 | 0.00 | 0.00 | 0.00 | 68 | 1014.9 |
| 20260902054616 | 28 | 144 | 3.2 | 8.0 | 0.00 | 0.00 | 0.00 | 67 | 1014.5 |
| 20260902054403 | 28 | 148 | 4.8 | 12.9 | 0.00 | 0.00 | 0.00 | 67 | 1014.8 |
| 20260902053503 | 28 | 152 | 3.2 | 9.7 | 0.00 | 0.00 | 0.00 | 66 | 1014.8 |
| 20260902053016 | 28 | 153 | 1.6 | 8.0 | 0.00 | 0.00 | 0.00 | 66 | 1014.5 |
| 20260902051703 | 28 | 143 | 4.8 | 8.0 | 0.00 | 0.00 | 0.00 | 65 | 1014.6 |
| 20260902051604 | 28 | 197 | 4.8 | 8.0 | 0.00 | 0.00 | 0.00 | 65 | 1014.3 |
| 20260902050803 | 28 | 146 | 6.4 | 11.3 | 0.00 | 0.00 | 0.00 | 64 | 1014.6 |
| 20260902050006 | 28 | 125 | 6.4 | 11.3 | 0.00 | 0.00 | 0.00 | 64 | 1014.2 |
| 20260902045903 | 28 | 145 | 6.4 | 9.7 | 0.00 | 0.00 | 0.00 | 64 | 1014.4 |
| 20260902045003 | 28 | 142 | 4.8 | 9.7 | 0.00 | 0.00 | 0.00 | 63 | 1014.5 |
| 20260902044509 | 28 | 129 | 3.2 | 11.3 | 0.00 | 0.00 | 0.00 | 63 | 1014.2 |
| 20260902043203 | 29 | 122 | 1.6 | 6.4 | 0.00 | 0.00 | 0.00 | 62 | 1014.4 |
| 20260902043005 | 29 | 135 | 3.2 | 6.4 | 0.00 | 0.00 | 0.00 | 62 | 1014.0 |
| 20260902042308 | 29 | 133 | 3.2 | 4.8 | 0.00 | 0.00 | 0.00 | 61 | 1014.3 |
| 20260902041508 | 29 | 150 | 3.2 | 8.0 | 0.00 | 0.00 | 0.00 | 61 | 1014.1 |
| 20260902041403 | 30 | 124 | 3.2 | 8.0 | 0.00 | 0.00 | 0.00 | 61 | 1014.4 |
| 20260902040503 | 30 | 123 | 3.2 | 8.0 | 0.00 | 0.00 | 0.00 | 61 | 1014.4 |
| 20260902040103 | 29 | 88 | 1.6 | 8.0 | 0.00 | 0.00 | 0.00 | 60 | 1014.1 |
| 20260902035603 | 30 | 138 | 1.6 | 8.0 | 0.00 | 0.00 | 0.00 | 60 | 1014.4 |